Location: Gouy
(50.0008°N, 3.2556°E)
Time: 07:45:13
(UTC+00:00)

Cosmos 2151 Rocket - Pass Details

Date: 23 August 2024
Orbit: 615 x 637 km, 82.5° (Epoch: 07 September)

Event Time Altitude Azimuth Distance (km) Brightness Sun altitude
Rises 02:59:12 0° 153° (SSE) 2,905 6.9 -16.1°
Reaches altitude 10° 03:01:46 10° 139° (SE) 2,008 6.2 -15.7°
Maximum altitude 03:05:16 23° 87° (E) 1,346 5.9 -15.3°
Drops below altitude 10° 03:08:49 10° 35° (NE) 2,031 7.4 -14.9°
Sets 03:11:25 0° 21° (NNE) 2,948 8.1 -14.6°
